This demonstration page uses our WeatherBlox Daily Observations layout. Learn more.

Left ArrowRight Arrow

34.16533, -84.80231

Hourly Observations for November 10, 2020

Temp ( °F °C ) Dew Point ( °F °C ) Humidity (%) Winds ( mph kmh ) Pressure ( in mb ) Visibility ( mi km ) Precip ( " mm )
12:53 am 00:53 Cloudy 69 20.6 62 16.7 78 78 VRB 6 9 30.10 1019 10 16 0.00 0.00
1:14 am 01:14 Mostly Cloudy 69 20.6 62 16.7 78 78 VRB 7 11 30.11 1020 10 16 0.00 0.00
1:53 am 01:53 Mostly Clear 68 20 62 16.7 81 81 VRB 7 11 30.09 1019 10 16 0.00 0.00
2:53 am 02:53 Cloudy 69 20.6 62 16.7 78 78 ENE 6 9 30.07 1018 10 16 0.00 0.00
3:06 am 03:06 Cloudy 69 20.6 62 16.7 78 78 ENE 8 13 30.09 1019 10 16 0.00 0.00
3:53 am 03:53 Cloudy 69 20.6 62 16.7 78 78 VRB 6 9 30.06 1018 10 16 0.00 0.00
4:53 am 04:53 Cloudy 69 20.6 62 16.7 78 78 E 9 15 30.06 1018 10 16 0.00 0.00
5:42 am 05:42 Cloudy 69 20.6 63 17.2 81 81 VRB 7 11 30.07 1018 10 16 0.00 0.00
5:53 am 05:53 Cloudy 69 20.6 63 17.2 81 81 VRB 6 9 30.06 1018 10 16 0.00 0.00
6:53 am 06:53 Cloudy 69 20.6 63 17.2 81 81 E 9 15 30.06 1018 10 16 0.00 0.00
7:53 am 07:53 Cloudy 69 20.6 63 17.2 81 81 ESE 7 11 30.07 1018 10 16 0.00 0.00
8:53 am 08:53 Cloudy 70 21.1 63 17.2 79 79 E 7 11 30.06 1018 10 16 0.00 0.00
9:53 am 09:53 Cloudy 70 21.1 64 17.8 82 82 VRB 7 11 30.07 1018 10 16 0.00 0.00
10:53 am 10:53 Cloudy 71 21.7 64 17.8 79 79 E 8 13 30.06 1018 10 16 0.00 0.00
11:53 am 11:53 Cloudy 71 21.7 64 17.8 79 79 E 10 17 30.04 1017 10 16 0.00 0.00
12:53 pm 12:53 Cloudy 72 22.2 65 18.3 79 79 E 10 17 30.01 1016 10 16 0.00 0.00
1:53 pm 13:53 Cloudy 72 22.2 65 18.3 79 79 ENE 9 15 29.99 1016 10 16 0.00 0.00
2:53 pm 14:53 Cloudy 71 21.7 66 18.9 84 84 E 5 7 29.97 1015 10 16 0.00 0.00
3:53 pm 15:53 Cloudy 72 22.2 65 18.3 79 79 E 8 13 29.96 1015 10 16 0.00 0.00
5:17 pm 17:17 Cloudy with Light Rain 70 21.1 67 19.4 90 90 E 6 9 29.97 1015 3 5 0.01 0.25
5:25 pm 17:25 Cloudy with Light Rain 70 21.1 67 19.4 90 90 E 6 9 29.97 1015 3 4 0.01 0.25
5:28 pm 17:28 Cloudy with Light Rain 70 21.1 67 19.4 90 90 VRB 3 6 29.97 1015 3 5 0.01 0.25
5:53 pm 17:53 Cloudy with Light Rain 70 21.1 67 19.4 90 90 undefined N/A 29.96 1014 6 10 0.01 0.25
6:00 pm 18:00 Cloudy with Light Rain 70 21.1 67 19.4 90 90 VRB 5 7 29.97 1015 8 13 0.01 0.25
6:16 pm 18:16 Cloudy with Light Rain 70 21.1 67 19.4 90 90 VRB 3 6 29.97 1015 7 11 0.01 0.25
6:53 pm 18:53 Cloudy with Light Rain 70 21.1 67 19.4 90 90 E 3 6 29.97 1015 8 13 0.04 1.02
7:21 pm 19:21 Cloudy with Light Rain 70 21.1 67 19.4 90 90 ENE 5 7 29.98 1015 10 16 0.00 0.00
7:40 pm 19:40 Cloudy with Light Rain 70 21.1 67 19.4 90 90 ESE 5 7 29.98 1015 10 16 0.00 0.00
7:53 pm 19:53 Cloudy with Rain 70 21.1 67 19.4 90 90 VRB 6 9 29.96 1015 3 4 0.04 1.02
7:59 pm 19:59 Cloudy with Rain 70 21.1 67 19.4 90 90 VRB 5 7 29.97 1015 2 3 0.02 0.51
8:04 pm 20:04 Cloudy with Light Rain 70 21.1 67 19.4 90 90 VRB 6 9 29.97 1015 3 5 0.03 0.76
8:25 pm 20:25 Cloudy 70 21.1 67 19.4 90 90 VRB 3 6 29.98 1015 8 13 0.03 0.76
8:53 pm 20:53 Cloudy with Light Rain 70 21.1 67 19.4 90 90 ESE 3 6 29.97 1015 6 10 0.04 1.02
9:16 pm 21:16 Cloudy with Light Rain 70 21.1 67 19.4 90 90 E 5 7 29.98 1015 4 6 0.00 0.00
9:27 pm 21:27 Cloudy with Mist and Fog 70 21.1 67 19.4 90 90 Calm 29.98 1015 3 5 0.01 0.25
9:34 pm 21:34 Cloudy with Light Rain 70 21.1 67 19.4 90 90 E 5 7 29.98 1015 3 5 0.01 0.25
9:53 pm 21:53 Cloudy with Mist and Fog 69 20.6 67 19.4 93 93 ENE 3 6 29.97 1015 4 6 0.01 0.25
10:53 pm 22:53 Cloudy with Mist and Fog 70 21.1 67 19.4 90 90 VRB 3 6 29.95 1014 4 6 0.01 0.25
11:53 pm 23:53 Cloudy with Mist and Fog 70 21.1 67 19.4 90 90 E 5 7 29.93 1014 6 10 0.00 0.00

Powered by AerisWeather